DECAYED

NOAA 16 DEB, 41521 (Decayed)

Orbit data source: Space-Track

NOAA 16 DEB, 41521 was space debris in SSO originally from a launch on Thu, 21 Sep 2000 UTC launched from the Air Force Western Test Range (AFWTR). Debris objects in space refer to the collection of defunct objects orbiting the Earth. Examples of debris include non-operational satellites, rocket bodies, and fragments generated from explosions, collisions, or faulty payload assembly.

Not visible in the next 10 days
Identifier
41521, 2000-055MV
Orbit
Decayed
Country
Flag of USUS
Related business
Manufacturer
Unknown
Mission
Decayed spacecraft
Bus & Motor
Unknown
Mass
Unknown
Launch date (UTC)
2000-09-21 (26 years ago)
Launch vehicle
Unknown
Launch site
Air Force Western Test Range (AFWTR)
Object type
Payload
Rocket body
Debris
Shape & HBR
Unknown shape, 0.1 m
Radar Cross Section
Medium (>0.1 m² and <1 m²)

Expand to show TLE details & history
Last TLE update: 1 year ago

TLE from 1 year ago
0 NOAA 16 DEB
1 41521U 00055MV  25026.61189208  .01732966  00000-0  34613-1 0  9995
2 41521  98.7409 160.5645 0024566 304.2341  55.6575 15.43142065456581
Epoch: 2025-01-26T14:41Z
TLE epoch observation values (Epoch: 2025-01-26T14:41:07.475Z)
Latitude
-0.00006°
Longitude
174.1395°
Altitude
430.504 km
Speed
7.659 km/s
True Right ascension
10h 42m 15s
True Declination
0° 00' 00"
Sunlit
Object was in full shadow at epoch
Visualization orbit readout
Latitude
Unknown
Longitude
Unknown
Altitude
Unknown
Speed
Unknown
Apparent Right ascension
Unknown
Apparent Declination
Unknown
Sunlit
N/A
Visualization observer readout
Local Sidereal Time
21:41:13
Azimuth
Unknown
Elevation
Unknown
Doppler factor
Unknown
Orbital elements
Apogee altitude
450.575 km
Perigee altitude
417.106 km
Semi-major axis
6,811.978 km
Eccentricity
0.00246
Inclination
98.7409°
RAAN
160.5645°
Arg. of periapsis
304.2341°
True anomaly
55.89034°
Mean anomaly
55.6575°
Eccentric anomaly
55.77388°
Mean motion
3.86041 °/min
Orbital period
93.25 mins
BSTAR
0.034613
Loading maneuver chart data...
Computing Atmospheric mass density...
Loading historical data...
Loading historical data...
Loading historical data...
Loading historical data...
Loading historical data...
Loading historical data...
Loading historical data...

Documentation

Showing up to 5 results
|